Spokane, WA

5:56 AM PDT on March 27, 2017 (GMT -0700)
Spokane International

Weather History for KGEG - January, 2014

Change the Weather History Date:

Saturday, January 4, 2014

  Actual Average Record
Temperature  
Mean Temperature 28 °F 28 °F  
Max Temperature 36 °F 33 °F 55 °F (1893)
Min Temperature 20 °F 23 °F -21 °F (1899)
Degree Days  
Heating Degree Days 37 37  
Month to date heating degree days 136 150  
Since 1 July heating degree days 3004 2984  
Cooling Degree Days 0 0  
Month to date cooling degree days 0 0  
Year to date cooling degree days 0 0  
Moisture  
Dew Point 16 °F    
Average Humidity 60    
Maximum Humidity 81    
Minimum Humidity 38    
Precipitation  
Precipitation 0.00 in 0.06 in 1.44 in (1884)
Month to date precipitation 0.02 0.26  
Year to date precipitation 0.02 0.26  
Snow  
Snow 0.00 in 0.50 in 3.80 in (1976)
Month to date snowfall T 1.9  
Since 1 July snowfall 6.8 24.0  
Snow Depth 0.00 in    
Sea Level Pressure  
Sea Level Pressure 30.34 in    
Wind  
Wind Speed 11 mph (WSW)    
Max Wind Speed 22 mph    
Max Gust Speed 26 mph    
Visibility 10 miles    
Events      
T = Trace of Precipitation, MM = Missing Value Source: NWS Daily Summary

Daily Weather History Graph

Daily Weather History Graph

Search for Another Location

Airport or City:

Trip Planner

Search our weather history database for the weather conditions in past years. The results will help you decide how hot, cold, wet, or windy it might be!

Date:

Astronomy

Jan. 04, 2014 Rise Set
Actual Time 7:38 AM PST 4:12 PM PST
Civil Twilight 7:02 AM PST 4:48 PM PST
Nautical Twilight 6:23 AM PST 5:27 PM PST
Astronomical Twilight 5:46 AM PST 6:04 PM PST
Moon 9:28 AM PST (1/4) 8:57 PM PST (1/4)
Length of Visible Light 9h 45m
Length of Day
8h 34m
Waxing Crescent, 16% of the Moon is Illuminated
Jan 4
Waxing Crescent
Jan 7
First Quarter
Jan 15
Full
Jan 23
Last Quarter
Jan 30
New

Hourly Weather History & Observations

Time (PST) Temp. Windchill Dew Point Humidity Pressure Visibility Wind Dir Wind Speed Gust Speed Precip Events Conditions
12:53 AM 23.0 °F 13.9 °F 16.0 °F 74% 30.19 in 10.0 mi West 8.1 mph - N/A   Clear
1:53 AM 24.1 °F 13.7 °F 15.1 °F 69% 30.22 in 10.0 mi West 10.4 mph - N/A   Clear
2:53 AM 21.9 °F 11.7 °F 15.1 °F 75% 30.25 in 10.0 mi West 9.2 mph - N/A   Clear
3:53 AM 21.0 °F 9.3 °F 14.0 °F 74% 30.25 in 10.0 mi WSW 11.5 mph - N/A   Clear
4:53 AM 21.9 °F 11.0 °F 12.9 °F 68% 30.26 in 10.0 mi WSW 10.4 mph - N/A   Partly Cloudy
5:53 AM 19.9 °F 7.9 °F 12.9 °F 74% 30.27 in 10.0 mi West 11.5 mph - N/A   Clear
6:53 AM 19.9 °F 7.9 °F 12.9 °F 74% 30.30 in 10.0 mi West 11.5 mph - N/A   Partly Cloudy
7:53 AM 21.9 °F 11.0 °F 12.9 °F 68% 30.32 in 10.0 mi West 10.4 mph - N/A   Partly Cloudy
8:53 AM 25.0 °F 13.6 °F 12.9 °F 60% 30.35 in 10.0 mi West 12.7 mph - N/A   Partly Cloudy
9:53 AM 30.9 °F 21.2 °F 14.0 °F 50% 30.36 in 10.0 mi West 12.7 mph - N/A   Scattered Clouds
10:53 AM 33.1 °F 22.2 °F 15.1 °F 48% 30.37 in 10.0 mi WNW 17.3 mph - N/A   Scattered Clouds
11:53 AM 35.1 °F 24.8 °F 12.9 °F 40% 30.37 in 10.0 mi WNW 17.3 mph 26.5 mph N/A   Scattered Clouds
12:53 PM 35.1 °F 25.9 °F 14.0 °F 42% 30.36 in 10.0 mi West 13.8 mph - N/A   Partly Cloudy
1:53 PM 35.1 °F 23.5 °F 16.0 °F 46% 30.35 in 10.0 mi WSW 21.9 mph - N/A   Partly Cloudy
2:53 PM 35.1 °F 25.5 °F 16.0 °F 46% 30.37 in 10.0 mi WSW 15.0 mph - N/A   Scattered Clouds
3:53 PM 33.1 °F 24.4 °F 19.0 °F 56% 30.38 in 10.0 mi WSW 11.5 mph - N/A   Scattered Clouds
4:53 PM 30.0 °F 21.7 °F 19.0 °F 64% 30.39 in 10.0 mi WSW 9.2 mph - N/A   Mostly Cloudy
5:53 PM 28.9 °F 18.2 °F 19.9 °F 69% 30.39 in 10.0 mi WSW 13.8 mph - N/A   Mostly Cloudy
6:53 PM 26.1 °F 16.8 °F 19.9 °F 78% 30.40 in 10.0 mi SW 9.2 mph - N/A   Mostly Cloudy
7:53 PM 25.0 °F 16.3 °F 19.9 °F 81% 30.41 in 10.0 mi WSW 8.1 mph - N/A   Scattered Clouds
8:53 PM 27.0 °F 17.3 °F 19.0 °F 72% 30.40 in 10.0 mi WSW 10.4 mph - N/A   Partly Cloudy
9:53 PM 24.1 °F 15.2 °F 18.0 °F 77% 30.41 in 10.0 mi WSW 8.1 mph - N/A   Partly Cloudy
10:53 PM 23.0 °F 12.4 °F 17.1 °F 78% 30.41 in 10.0 mi West 10.4 mph - N/A   Partly Cloudy
11:53 PM 23.0 °F - 17.1 °F 78% 30.42 in 10.0 mi Calm Calm - N/A   Mostly Cloudy